Weather Roundup
Issued by NWS

Home | Current Version | Previous Version | Text Only | Print | Product List | Glossary On
Versions: 1 2 3 4 5 6 7 8 9 10 11 12 13 14 15 16 17 18 19 20 21 22 23 24 25 26 27 28 29 30 31 32 33 34 35 36 37 38 39 40 41 42 43 44 45 46 47 48 49 50
000
NZUS93 KARX 251810
HRRWXR

CURRENT HOURLY OBSERVATIONS ACROSS
MUCH OF THE UPPER MISSISSIPPI VALLEY
NATIONAL WEATHER SERVICE LA CROSSE WI
1200 PM CST TUE NOV 25 2014


...SOUTHEAST MINNESOTA...


CITY           SKY/WX    TMP DP  RH WIND       PRES   REMARKS
ROCHESTER      SUNNY     19  12  74 W8        30.05F WCI   9
ROCHESTER/MAYO FAIR      21  11  66 W8        30.06S WCI  11
WINONA         SUNNY     23  14  68 W3        30.09S
AUSTIN         SUNNY     19  12  73 W3        30.06S
ALBERT LEA     SUNNY     21  12  68 W6        30.06S WCI  14
DODGE CENTER   SUNNY     18  14  86 SW8       30.05R WCI   7
PRESTON        SUNNY     17  11  76 W7        30.06S WCI   8
OWATONNA       SUNNY     21  12  68 SW6       30.05F WCI  14
FARIBAULT      CLOUDY    21  14  73 CALM      30.06F
$$

...ELSEWHERE IN MINNESOTA...


CITY           SKY/WX    TMP DP  RH WIND       PRES   REMARKS
MINNEAPOLIS    CLOUDY    19  10  68 CALM      30.07F
INTNL FALLS    CLOUDY    15   3  59 W6        29.94F WCI   6
DULUTH         MOSUNNY   18   9  68 SW7       29.96S WCI   9
RED WING       SUNNY     23  12  63 W6        30.07S WCI  16
REDWOOD FALLS  CLOUDY    25   9  50 SE7       30.02F WCI  17
MANKATO        CLOUDY    21   7  53 S6        30.05F WCI  14
WORTHINGTON    CLOUDY    27  12  54 S9        30.01F WCI  17
FAIRMONT       SUNNY     28   7  40 SW6       30.05F WCI  22
$$

...SOUTHWEST WISCONSIN...


CITY           SKY/WX    TMP DP  RH WIND       PRES   REMARKS
LA CROSSE      SUNNY     24  12  60 NW3       30.08S
PRAIRIE DU CHI SUNNY     20  11  66 SW7       30.10S WCI  11
BOSCOBEL       MOSUNNY   22  14  71 SW7       30.09F WCI  13
LONE ROCK      CLOUDY    25  14  63 W7        30.08S WCI  17
PLATTEVILLE    SUNNY     22  16  78 SW7       30.08S WCI  13
FORT MC COY    MOSUNNY   19  13  77 NW6       30.07S WCI  11
CAMP DOUGLAS   CLOUDY    19  18  93 VRB5      30.05S WCI  13
VIROQUA        FAIR      19  13  77 W6        30.04S WCI  11
WIS DELLS      CLOUDY    20  15  79 W7        30.04S WCI  12
$$

...ELSEWHERE IN WISCONSIN...


CITY           SKY/WX    TMP DP  RH WIND       PRES   REMARKS
MILWAUKEE      PTSUNNY   27  18  69 W9        30.04F WCI  18
MADISON        CLOUDY    22  15  75 W8        30.06S WCI  12
GREEN BAY      CLOUDY    24  17  74 W10       30.01R WCI  14
EAU CLAIRE     MOSUNNY   16  10  77 W7        30.06S WCI   6
BLACK RVR FLS  CLOUDY    23  13  65 SW6       30.05F WCI  15
MEDFORD        FLURRIES  17  10  75 W8        29.98S WCI   6
WAUSAU         FLURRIES  18  12  77 W9        29.98S WCI   7
WIS RAPIDS     CLOUDY    19  11  70 NW9       30.04S WCI   8
MARSHFIELD     PTSUNNY   18  10  71 W8        30.00F WCI   8
RICE LAKE      SUNNY     17  10  73 SW5       30.05S WCI  10
$$

...NORTHEAST IOWA...


CITY           SKY/WX    TMP DP  RH WIND       PRES   REMARKS
DECORAH        SUNNY     18  10  73 W8        30.07R WCI   7
MASON CITY     SUNNY     22  13  68 MISG      30.09S
CHARLES CITY   SUNNY     19  10  68 W6        30.09S WCI  11
OELWEIN        SUNNY     19  12  73 W9        30.10S WCI   9
$$

...ELSEWHERE IN IOWA...


CITY           SKY/WX    TMP DP  RH WIND       PRES   REMARKS
DES MOINES     MOSUNNY   31  11  43 VRB6      30.13F WCI  25
IOWA CITY      NOT AVBL
FORT DODGE     SUNNY     28   9  43 W8        30.09F WCI  20
$$

...NORTHERN ILLINOIS...


CITY           SKY/WX    TMP DP  RH WIND       PRES   REMARKS
CHICAGO-OHARE  MOSUNNY   25  17  72 W12       30.08S WCI  14
CHICAGO-MIDWAY MOSUNNY   28  18  66 SW12      30.09F WCI  18
MOLINE         NOT AVBL
ROCKFORD       MOSUNNY   22  14  71 W8        30.11F WCI  12
PEORIA         CLOUDY    26  18  71 W10       30.17F WCI  16
$$

NOTE: "FAIR" INDICATES FEW OR NO CLOUDS BELOW 12,000 FEET WITH NO
SIGNIFICANT WEATHER AND/OR OBSTRUCTIONS TO VISIBILITY. WIND
SPEEDS ARE IN MILES-PER-HOUR.



USA.gov is the U.S. government's official web portal to all federal, state and local government web resources and services.